TimeEST,TemperatureF,Dew PointF,Humidity,Sea Level PressureIn,VisibilityMPH,Wind Direction,Wind SpeedMPH,Gust SpeedMPH,PrecipitationIn,Events,Conditions,WindDirDegrees,DateUTC
12:53 AM,44.1,37.0,76,29.95,10.0,Variable,3.5,-,N/A,,Clear,0,2012-12-20 05:53:00
1:53 AM,43.0,37.0,80,29.92,10.0,Calm,Calm,-,N/A,,Clear,0,2012-12-20 06:53:00
2:53 AM,41.0,37.0,86,29.88,10.0,Calm,Calm,-,N/A,,Clear,0,2012-12-20 07:53:00
3:53 AM,44.1,37.0,76,29.83,10.0,SSE,4.6,-,N/A,,Clear,160,2012-12-20 08:53:00
4:53 AM,48.0,39.0,71,29.75,10.0,South,10.4,19.6,N/A,,Clear,170,2012-12-20 09:53:00
5:53 AM,48.0,39.9,74,29.70,10.0,SW,11.5,-,N/A,,Clear,230,2012-12-20 10:53:00
6:53 AM,50.0,39.2,66,29.61,10.0,SSE,12.7,19.6,N/A,,Overcast,160,2012-12-20 11:53:00
7:53 AM,48.0,43.0,83,29.66,5.0,SSE,8.1,-,0.02,Rain,Rain,160,2012-12-20 12:53:00
8:53 AM,48.9,46.0,90,29.60,6.0,SSE,11.5,19.6,0.10,Rain,Rain,160,2012-12-20 13:53:00
9:48 AM,48.2,46.4,93,29.57,5.0,SSE,15.0,27.6,0.11,Rain,Light Rain,160,2012-12-20 14:48:00
9:53 AM,48.9,46.9,93,29.57,4.0,South,12.7,24.2,0.11,Rain,Rain,170,2012-12-20 14:53:00
10:53 AM,50.0,48.0,93,29.57,3.0,South,13.8,25.3,0.19,Rain,Heavy Rain,180,2012-12-20 15:53:00
11:00 AM,50.0,48.2,94,29.56,2.5,South,11.5,23.0,0.02,Rain,Rain,180,2012-12-20 16:00:00
11:07 AM,50.0,48.2,94,29.56,3.0,South,13.8,25.3,0.04,Rain,Rain,190,2012-12-20 16:07:00
11:53 AM,50.0,48.9,96,29.52,3.0,South,12.7,23.0,0.13,Rain,Rain,180,2012-12-20 16:53:00
12:53 PM,50.0,48.0,93,29.45,6.0,South,13.8,23.0,0.06,Rain,Light Rain,170,2012-12-20 17:53:00
1:53 PM,51.1,48.0,89,29.38,10.0,South,18.4,26.5,0.01,Rain,Light Rain,170,2012-12-20 18:53:00
2:37 PM,50.0,48.2,94,29.36,2.0,South,15.0,31.1,0.00,Rain,Light Rain,180,2012-12-20 19:37:00
2:49 PM,51.8,48.2,88,29.34,5.0,South,16.1,26.5,0.00,Rain,Light Rain,180,2012-12-20 19:49:00
2:53 PM,51.1,48.9,92,29.35,8.0,South,17.3,26.5,0.00,Rain,Light Rain,180,2012-12-20 19:53:00
3:53 PM,51.1,48.0,89,29.31,10.0,South,10.4,19.6,0.00,,Overcast,180,2012-12-20 20:53:00
4:53 PM,50.0,39.0,66,29.33,10.0,SSW,35.7,48.3,0.00,,Overcast,210,2012-12-20 21:53:00
5:03 PM,48.2,39.2,71,29.35,10.0,WSW,35.7,46.0,N/A,,Overcast,240,2012-12-20 22:03:00
5:53 PM,43.0,34.0,71,29.41,10.0,SW,24.2,42.6,N/A,,Overcast,230,2012-12-20 22:53:00
6:53 PM,39.9,32.0,73,29.47,10.0,SSW,24.2,34.5,N/A,,Overcast,210,2012-12-20 23:53:00
7:53 PM,37.9,32.0,79,29.50,10.0,SW,25.3,35.7,0.00,,Overcast,220,2012-12-21 00:53:00
8:53 PM,36.0,28.0,73,29.52,9.0,SW,26.5,40.3,0.00,Snow,Light Snow,220,2012-12-21 01:53:00
9:53 PM,35.1,28.0,76,29.54,9.0,SW,25.3,35.7,0.00,Snow,Light Snow,230,2012-12-21 02:53:00
10:53 PM,34.0,26.1,73,29.54,10.0,SW,24.2,44.9,0.00,,Overcast,230,2012-12-21 03:53:00
11:49 PM,33.8,26.6,75,29.56,7.0,WSW,23.0,36.8,0.00,Snow,Light Snow,240,2012-12-21 04:49:00
11:53 PM,33.1,26.1,75,29.57,8.0,WSW,23.0,35.7,0.00,Snow,Light Snow,240,2012-12-21 04:53:00